| time (UTC) | temp F | wind direction | speed MPH | gust MPH | rain 1hr in | rain 24hr in | rain mn in | humidity % | barometer mb |
| 20260505064539 | 52 | 191 | 0.0 | 1.0 | 0.00 | 0.00 | 0.00 | 67 | 1009.4 |
| 20260505063002 | 53 | 191 | 0.0 | 3.0 | 0.00 | 0.00 | 0.00 | 67 | 1009.6 |
| 20260505061555 | 52 | 191 | 0.0 | 1.0 | 0.00 | 0.00 | 0.00 | 68 | 1009.7 |
| 20260505060015 | 51 | 191 | 0.0 | 0.0 | 0.00 | 0.00 | 0.00 | 69 | 1009.8 |
| 20260505054611 | 51 | 191 | 0.0 | 0.0 | 0.00 | 0.00 | 0.00 | 69 | 1009.9 |
| 20260505053020 | 50 | 191 | 0.0 | 0.0 | 0.00 | 0.00 | 0.00 | 70 | 1010.0 |
| 20260505051618 | 50 | 191 | 0.0 | 0.0 | 0.00 | 0.00 | 0.00 | 69 | 1010.2 |
| 20260505041505 | 50 | 191 | 0.0 | 0.0 | 0.00 | 0.00 | 0.00 | 70 | 1010.4 |
| 20260505034513 | 51 | 191 | 0.0 | 0.0 | 0.00 | 0.00 | 0.00 | 69 | 1010.4 |
| 20260505033104 | 51 | 191 | 0.0 | 1.0 | 0.00 | 0.00 | 0.00 | 69 | 1010.3 |
| 20260505031537 | 52 | 191 | 0.0 | 0.0 | 0.00 | 0.00 | 0.00 | 68 | 1010.4 |
| 20260505030119 | 52 | 191 | 0.0 | 2.0 | 0.00 | 0.00 | 0.00 | 67 | 1010.4 |
| 20260505024552 | 53 | 191 | 0.0 | 1.0 | 0.00 | 0.00 | 0.00 | 65 | 1010.3 |
| 20260505023130 | 54 | 191 | 0.0 | 2.0 | 0.00 | 0.00 | 0.00 | 64 | 1010.3 |
| 20260505021553 | 54 | 191 | 0.0 | 3.0 | 0.00 | 0.00 | 0.00 | 63 | 1010.4 |
| 20260505020004 | 55 | 189 | 1.0 | 5.0 | 0.00 | 0.00 | 0.00 | 62 | 1010.3 |
| 20260505014612 | 55 | 183 | 0.0 | 4.0 | 0.00 | 0.00 | 0.00 | 61 | 1010.3 |
| 20260505013015 | 56 | 183 | 0.0 | 6.0 | 0.00 | 0.00 | 0.00 | 59 | 1010.0 |
| 20260505011611 | 57 | 184 | 1.0 | 4.0 | 0.00 | 0.00 | 0.00 | 59 | 1010.0 |
| 20260505010027 | 57 | 184 | 0.0 | 4.0 | 0.00 | 0.00 | 0.00 | 57 | 1009.8 |
| 20260505003045 | 59 | 182 | 1.0 | 6.0 | 0.00 | 0.00 | 0.00 | 53 | 1009.2 |
| 20260505001503 | 60 | 184 | 2.0 | 6.0 | 0.00 | 0.00 | 0.00 | 50 | 1009.0 |
| 20260505000114 | 61 | 240 | 0.0 | 1.0 | 0.00 | 0.00 | 0.00 | 44 | 1008.6 |
| 20260504234511 | 62 | 240 | 0.0 | 2.0 | 0.00 | 0.00 | 0.00 | 42 | 1008.5 |
| 20260504233111 | 62 | 240 | 0.0 | 4.0 | 0.00 | 0.00 | 0.00 | 41 | 1008.4 |
| 20260504231518 | 63 | 246 | 1.0 | 4.0 | 0.00 | 0.00 | 0.00 | 40 | 1008.1 |
| 20260504230113 | 63 | 248 | 0.0 | 3.0 | 0.00 | 0.00 | 0.00 | 39 | 1007.9 |
| 20260504224539 | 64 | 214 | 0.0 | 5.0 | 0.00 | 0.00 | 0.00 | 39 | 1007.8 |
| 20260504223135 | 64 | 235 | 4.0 | 17.0 | 0.00 | 0.00 | 0.00 | 37 | 1007.9 |
| 20260504221551 | 65 | 189 | 2.0 | 8.0 | 0.00 | 0.00 | 0.00 | 37 | 1008.0 |
| 20260504220013 | 65 | 244 | 2.0 | 9.0 | 0.00 | 0.00 | 0.00 | 36 | 1008.1 |
| 20260504214558 | 66 | 247 | 2.0 | 7.0 | 0.00 | 0.00 | 0.00 | 37 | 1008.2 |
| 20260504213021 | 65 | 239 | 3.0 | 10.0 | 0.00 | 0.00 | 0.00 | 37 | 1008.4 |
| 20260504211602 | 65 | 240 | 2.0 | 8.0 | 0.00 | 0.00 | 0.00 | 37 | 1008.4 |
| 20260504210019 | 65 | 271 | 1.0 | 13.0 | 0.00 | 0.00 | 0.00 | 38 | 1008.5 |
| 20260504204614 | 65 | 237 | 0.0 | 9.0 | 0.00 | 0.00 | 0.00 | 38 | 1008.5 |
| 20260504201627 | 65 | 245 | 2.0 | 13.0 | 0.00 | 0.00 | 0.00 | 37 | 1008.8 |
| 20260504200039 | 67 | 236 | 2.0 | 11.0 | 0.00 | 0.00 | 0.00 | 34 | 1008.8 |
| 20260504194626 | 68 | 244 | 2.0 | 10.0 | 0.00 | 0.00 | 0.00 | 35 | 1008.8 |
| 20260504193040 | 68 | 231 | 1.0 | 10.0 | 0.00 | 0.00 | 0.00 | 35 | 1008.8 |
| 20260504191633 | 67 | 233 | 4.0 | 15.0 | 0.00 | 0.00 | 0.00 | 35 | 1008.8 |
| 20260504190052 | 67 | 246 | 3.0 | 9.0 | 0.00 | 0.00 | 0.00 | 36 | 1009.0 |
| 20260504184512 | 67 | 165 | 0.0 | 9.0 | 0.00 | 0.00 | 0.00 | 35 | 1009.1 |
| 20260504183104 | 66 | 271 | 1.0 | 11.0 | 0.00 | 0.00 | 0.00 | 37 | 1009.1 |
| 20260504181522 | 65 | 205 | 4.0 | 9.0 | 0.00 | 0.00 | 0.00 | 37 | 1009.5 |
| 20260504180104 | 65 | 213 | 0.0 | 11.0 | 0.00 | 0.00 | 0.00 | 37 | 1009.5 |
| 20260504174530 | 67 | 253 | 1.0 | 8.0 | 0.00 | 0.00 | 0.00 | 38 | 1009.7 |
| 20260504173124 | 66 | 248 | 2.0 | 17.0 | 0.00 | 0.00 | 0.00 | 36 | 1009.7 |
| 20260504130104 | 53 | 247 | 0.0 | 10.0 | 0.00 | 0.00 | 0.00 | 51 | 1012.1 |
| 20260504120128 | 49 | 243 | 1.0 | 7.0 | 0.00 | 0.00 | 0.00 | 56 | 1012.5 |
| 20260504090125 | 40 | 262 | 0.0 | 2.0 | 0.00 | 0.00 | 0.00 | 68 | 1011.7 |
| 20260504081543 | 41 | 262 | 0.0 | 1.0 | 0.00 | 0.00 | 0.00 | 69 | 1011.8 |